Leuchars, United Kingdom

11:26 AM GMT on February 24, 2017 (GMT +0000)
Leuchars

Weather History for EGQL - December, 2013

Change the Weather History Date:

Monday, December 30, 2013

  Actual Average Record
Temperature  
Mean Temperature 41 °F -  
Max Temperature 45 °F 42 °F 55 °F (2015)
Min Temperature 37 °F 33 °F 23 °F (2003)
Degree Days  
Heating Degree Days 24    
Moisture  
Dew Point 40 °F    
Average Humidity 88    
Maximum Humidity 100    
Minimum Humidity 70    
Precipitation  
Precipitation 0.63 in - - ()
Sea Level Pressure  
Sea Level Pressure 29.37 in    
Wind  
Wind Speed 10 mph ()    
Max Wind Speed 17 mph    
Max Gust Speed -    
Visibility 7.2 miles    
Events Rain    
Averages and records for this station are not official NWS values.
T = Trace of Precipitation, MM = Missing Value Source: Averaged Metar Reports

Daily Weather History Graph

Daily Weather History Graph

Search for Another Location

Airport or City:

Trip Planner

Search our weather history database for the weather conditions in past years. The results will help you decide how hot, cold, wet, or windy it might be!

Date:

Astronomy

Dec. 30, 2013 Rise Set
Actual Time 8:45 AM GMT 3:42 PM GMT
Civil Twilight 7:57 AM GMT 4:30 PM GMT
Nautical Twilight 7:08 AM GMT 5:20 PM GMT
Astronomical Twilight 6:22 AM GMT 6:06 PM GMT
Moon 6:07 AM GMT (12/30) 2:12 PM GMT (12/30)
Length of Visible Light 8h 32m
Length of Day
6h 57m
Waning Crescent, 6% of the Moon is Illuminated
Dec 30
Waning Crescent
Jan 1
New
Jan 8
First Quarter
Jan 16
Full
Jan 24
Last Quarter

Hourly Weather History & Observations

Time (GMT) Temp. Windchill Dew Point Humidity Pressure Visibility Wind Dir Wind Speed Gust Speed Precip Events Conditions
12:00 AM 42 °F - 39 °F 87% 29.51 in 6 mi SSE 15.0 mph - - Rain Rain
12:50 AM 42.8 °F 36.2 °F 41.0 °F 93% 29.44 in 6.2 mi SSE 12.7 mph - N/A Rain Light Rain
1:00 AM 43 °F - 40 °F 87% 29.47 in 9 mi SSE 12.7 mph - - Rain Light Rain
1:50 AM 44.6 °F 38.1 °F 41.0 °F 87% 29.42 in 6.2 mi South 13.8 mph - N/A Rain Rain
2:00 AM 45 °F - 42 °F 84% 29.42 in 7 mi South 13.8 mph - - Rain Rain
2:50 AM 46.4 °F 40.1 °F 42.8 °F 87% 29.39 in 6.2 mi South 15.0 mph - N/A Rain Light Rain
3:00 AM 46 °F - 43 °F 86% 29.39 in 9 mi South 15.0 mph - - Rain Light Rain
3:50 AM 46.4 °F 40.7 °F 42.8 °F 87% 29.36 in 6.2 mi South 12.7 mph - N/A Rain Light Rain
4:00 AM 46 °F - 43 °F 87% 29.36 in 9 mi South 12.7 mph - - Rain Light Rain
4:50 AM 46.4 °F 43.5 °F 44.6 °F 93% 29.33 in 6.2 mi South 5.8 mph - N/A Rain Light Rain
5:00 AM 46 °F - 44 °F 89% 29.35 in 9 mi South 5.8 mph - - Rain Light Rain
5:50 AM 46.4 °F - 44.6 °F 93% 29.33 in 4.3 mi SE 2.3 mph - N/A Rain Light Rain
6:00 AM 46 °F - 45 °F 93% 29.33 in 4 mi SE 2.3 mph - - Rain Light Rain
6:50 AM 46.4 °F - 44.6 °F 93% 29.30 in 4.3 mi ESE 2.3 mph - N/A Rain Light Rain
7:00 AM 46 °F - 45 °F 94% 29.31 in 4 mi ESE 2.3 mph - - Rain Light Rain
7:50 AM 44.6 °F - 44.6 °F 100% 29.27 in 2.5 mi North 2.3 mph - N/A Rain Light Rain
8:00 AM 45 °F - 44 °F 97% 29.29 in 2 mi North 2.3 mph - - Rain Light Rain
8:50 AM 44.6 °F 42.2 °F 44.6 °F 100% 29.27 in 3.7 mi NW 4.6 mph - N/A Rain Rain
9:00 AM 45 °F - 44 °F 97% 29.29 in 3 mi NW 4.6 mph - - Rain Heavy Rain
9:50 AM 42.8 °F 39.3 °F 41.0 °F 93% 29.27 in 5.6 mi WNW 5.8 mph - N/A Rain Rain
10:00 AM 43 °F - 42 °F 92% 29.28 in 6 mi WNW 5.8 mph - - Rain Rain
10:50 AM 42.8 °F 38.0 °F 41.0 °F 93% 29.24 in 6.2 mi WNW 8.1 mph - N/A Rain Light Rain
11:00 AM 42 °F - 41 °F 93% 29.26 in 7 mi WNW 8.1 mph - - Rain Light Rain
11:50 AM 42.8 °F 37.5 °F 41.0 °F 93% 29.24 in 6.2 mi NW 9.2 mph - N/A Rain Rain
12:00 PM 42 °F - 40 °F 91% 29.25 in 6 mi NW 9.2 mph - - Rain Rain
12:50 PM 41.0 °F 34.3 °F 39.2 °F 93% 29.24 in 6.2 mi NW 11.5 mph - N/A Rain Rain
1:00 PM 42 °F - 40 °F 88% 29.25 in 7 mi NW 11.5 mph - - Rain Rain
1:50 PM 41.0 °F 33.9 °F 39.2 °F 93% 29.24 in 6.2 mi WNW 12.7 mph - N/A Rain Light Rain
2:00 PM 41 °F - 39 °F 88% 29.26 in 7 mi WNW 12.7 mph - - Rain Light Rain
2:50 PM 41.0 °F 33.9 °F 37.4 °F 87% 29.30 in 6.2 mi NW 12.7 mph - N/A Rain Rain
3:00 PM 41 °F - 37 °F 81% 29.31 in 9 mi NW 12.7 mph - - Rain Rain
3:50 PM 41.0 °F 34.7 °F 37.4 °F 87% 29.33 in 6.2 mi WNW 10.4 mph - N/A Rain Light Rain
4:00 PM 42 °F - 38 °F 79% 29.35 in 16 mi WNW 10.4 mph - - Rain Light Rain
4:50 PM 42.8 °F 35.1 °F 37.4 °F 81% 29.39 in 6.2 mi West 16.1 mph - N/A   Mostly Cloudy
5:00 PM 43 °F - 37 °F 71% 29.39 in 19 mi West 16.1 mph - - Rain Light Rain
5:50 PM 42.8 °F 34.8 °F 37.4 °F 81% 29.42 in 6.2 mi West 17.3 mph - N/A Rain Light Rain
6:00 PM 43 °F - 37 °F 72% 29.42 in 19 mi West 17.3 mph - - Rain Light Rain
6:50 PM 42.8 °F 35.8 °F 37.4 °F 81% 29.44 in 6.2 mi West 13.8 mph - N/A   Mostly Cloudy
7:00 PM 42 °F - 37 °F 76% 29.46 in 22 mi West 13.8 mph - - Rain Light Rain
7:50 PM 41.0 °F 33.1 °F 35.6 °F 81% 29.47 in 6.2 mi West 15.0 mph - N/A   Scattered Clouds
8:00 PM 42 °F - 35 °F 70% 29.49 in 25 mi West 15.0 mph - -   Scattered Clouds
8:50 PM 39.2 °F 30.2 °F 35.6 °F 87% 29.50 in - WSW 17.3 mph - N/A   Clear
9:00 PM 39 °F - 35 °F 81% 29.53 in 25 mi WSW 17.3 mph - -   Partly Cloudy
9:50 PM 37.4 °F 29.3 °F 35.6 °F 93% 29.53 in - WSW 12.7 mph - N/A   Clear
10:00 PM 38 °F - 35 °F 83% 29.55 in 25 mi WSW 12.7 mph - -  
10:50 PM 37.4 °F 29.3 °F 35.6 °F 93% 29.56 in - WSW 12.7 mph - N/A   Clear
11:00 PM 38 °F - 35 °F 84% 29.57 in 19 mi WSW 12.7 mph - -  
11:50 PM 39.2 °F 33.6 °F 35.6 °F 87% 29.56 in 6.2 mi West 8.1 mph - N/A   Scattered Clouds